Burns, OR

10:30 PM PST on December 05, 2016 (GMT -0800)
Burns Municipal

Weather History for KBNO - January, 2014

Change the Weather History Date:

Friday, January 24, 2014

  Actual Average Record
Temperature  
Mean Temperature 25 °F 25 °F  
Max Temperature 43 °F 35 °F 56 °F (2015)
Min Temperature 7 °F 15 °F -17 °F (2008)
Degree Days  
Heating Degree Days 40 40  
Month to date heating degree days 843 971  
Since 1 July heating degree days 4176 4238  
Cooling Degree Days 0 0  
Month to date cooling degree days 0 0  
Year to date cooling degree days 0 0  
Moisture  
Dew Point 14 °F    
Average Humidity 64    
Maximum Humidity 92    
Minimum Humidity 36    
Precipitation  
Precipitation 0.00 in 0.03 in 0.67 in (2012)
Month to date precipitation 0.20 0.95  
Year to date precipitation 0.20 0.95  
Sea Level Pressure  
Sea Level Pressure 30.60 in    
Wind  
Wind Speed 6 mph (SW)    
Max Wind Speed 16 mph    
Max Gust Speed 19 mph    
Visibility 10 miles    
Events      
T = Trace of Precipitation, MM = Missing Value Source: NWS Daily Summary

Daily Weather History Graph

Daily Weather History Graph

Search for Another Location

Airport or City:

Trip Planner

Search our weather history database for the weather conditions in past years. The results will help you decide how hot, cold, wet, or windy it might be!

Date:

Astronomy

Jan. 24, 2014 Rise Set
Actual Time 7:19 AM PST 4:56 PM PST
Civil Twilight 6:48 AM PST 5:27 PM PST
Nautical Twilight 6:13 AM PST 6:02 PM PST
Astronomical Twilight 5:40 AM PST 6:36 PM PST
Moon 12:49 AM PST (1/24) 11:20 AM PST (1/24)
Length of Visible Light 10h 38m
Length of Day
9h 36m
Last Quarter, 43% of the Moon is Illuminated
Jan 24
Last Quarter
Jan 30
New
Feb 6
First Quarter
Feb 14
Full
Feb 22
Last Quarter

Hourly Weather History & Observations

Time (PST) Temp. Windchill Dew Point Humidity Pressure Visibility Wind Dir Wind Speed Gust Speed Precip Events Conditions
12:53 AM 21.0 °F 8.6 °F 14.0 °F 74% 30.55 in 10.0 mi NE 12.7 mph - N/A   Clear
1:53 AM 21.9 °F 10.4 °F 15.1 °F 75% 30.57 in 10.0 mi ENE 11.5 mph - N/A   Clear
2:53 AM 16.0 °F - 10.9 °F 81% 30.59 in 10.0 mi Calm Calm - N/A   Clear
3:53 AM 12.9 °F 1.6 °F 8.1 °F 81% 30.59 in 10.0 mi SSW 8.1 mph - N/A   Clear
4:53 AM 12.0 °F 1.5 °F 10.0 °F 92% 30.62 in 10.0 mi SW 6.9 mph - N/A   Clear
5:53 AM 10.9 °F 0.2 °F 8.1 °F 88% 30.65 in 10.0 mi WSW 6.9 mph - N/A   Clear
6:53 AM 7.0 °F -3.3 °F 5.0 °F 92% 30.66 in 10.0 mi West 5.8 mph - N/A   Clear
7:53 AM 12.9 °F 3.8 °F 10.0 °F 88% 30.65 in 10.0 mi West 5.8 mph - N/A   Clear
8:53 AM 23.0 °F - 18.0 °F 81% 30.62 in 10.0 mi Calm Calm - N/A   Clear
9:53 AM 26.1 °F 18.4 °F 19.0 °F 75% 30.64 in 10.0 mi South 6.9 mph - N/A   Clear
10:53 AM 34.0 °F - 21.9 °F 61% 30.62 in 10.0 mi Calm Calm - N/A   Clear
11:53 AM 39.9 °F 33.9 °F 19.9 °F 45% 30.60 in 10.0 mi East 9.2 mph - N/A   Clear
12:53 PM 42.1 °F 35.7 °F 19.0 °F 40% 30.56 in 10.0 mi East 11.5 mph - N/A   Clear
1:53 PM 42.1 °F 36.1 °F 18.0 °F 38% 30.54 in 10.0 mi East 10.4 mph - N/A   Clear
2:53 PM 42.1 °F 35.2 °F 19.0 °F 40% 30.55 in 10.0 mi East 12.7 mph - N/A   Clear
3:53 PM 37.0 °F 28.9 °F 19.9 °F 50% 30.56 in 10.0 mi East 12.7 mph - N/A   Clear
4:53 PM 33.1 °F 30.0 °F 18.0 °F 54% 30.58 in 10.0 mi Variable 3.5 mph - N/A   Clear
5:53 PM 23.0 °F 17.0 °F 15.1 °F 72% 30.61 in 10.0 mi SSE 4.6 mph - N/A   Clear
6:53 PM 17.1 °F 11.7 °F 12.9 °F 84% 30.64 in 10.0 mi NW 3.5 mph - N/A   Clear
7:53 PM 18.0 °F 9.8 °F 12.9 °F 81% 30.62 in 10.0 mi WNW 5.8 mph - N/A   Clear
8:53 PM 14.0 °F 5.1 °F 10.9 °F 88% 30.61 in 10.0 mi West 5.8 mph - N/A   Clear
9:53 PM 12.9 °F 3.8 °F 10.0 °F 88% 30.61 in 10.0 mi WSW 5.8 mph - N/A   Clear
10:53 PM 10.0 °F 1.8 °F 7.0 °F 87% 30.60 in 10.0 mi WSW 4.6 mph - N/A   Clear
11:53 PM 8.1 °F - 5.0 °F 87% 30.59 in 10.0 mi Calm Calm - N/A   Clear